Berlin, NH

3:31 PM EDT on May 23, 2018 (GMT -0400)
Berlin Municipal

Weather History for KBML - January, 2013

Change the Weather History Date:

Wednesday, January 16, 2013

  Actual Average Record
Temperature  
Mean Temperature 24 °F -  
Max Temperature 27 °F 19 °F 36 °F (2017)
Min Temperature 21 °F 0 °F -38 °F (2009)
Degree Days  
Heating Degree Days 41    
Moisture  
Dew Point 22 °F    
Average Humidity 85    
Maximum Humidity 93    
Minimum Humidity 74    
Precipitation  
Precipitation 0.25 in - - ()
Sea Level Pressure  
Sea Level Pressure 29.96 in    
Wind  
Wind Speed 1 mph (NNW)    
Max Wind Speed 6 mph    
Max Gust Speed -    
Visibility 4 miles    
Events Fog , Snow    
Averages and records for this station are not official NWS values.
T = Trace of Precipitation, MM = Missing Value Source: NWS Daily Summary

Daily Weather History Graph

Daily Weather History Graph

Search for Another Location

Airport or City:

Astronomy

Jan. 16, 2013 Rise Set
Actual Time 7:17 AM EST 4:32 PM EST
Civil Twilight 6:44 AM EST 5:04 PM EST
Nautical Twilight 6:08 AM EST 5:40 PM EST
Astronomical Twilight 5:34 AM EST 6:15 PM EST
Moon 9:37 AM EST (1/16) 10:37 PM EST (1/16)
Length of Visible Light 10h 19m
Length of Day
9h 14m
Waxing Crescent, 28% of the Moon is Illuminated
Jan 16
Waxing Crescent
Jan 18
First Quarter
Jan 26
Full
Feb 3
Last Quarter
Feb 10
New

Hourly Weather History & Observations

Time (EST) Temp. Windchill Dew Point Humidity Pressure Visibility Wind Dir Wind Speed Gust Speed Precip Events Conditions
12:52 AM 23.0 °F - 17.1 °F 78% 30.24 in 10.0 mi Calm Calm - N/A   Overcast
1:52 AM 21.9 °F - 17.1 °F 82% 30.23 in 10.0 mi Calm Calm - N/A   Partly Cloudy
2:52 AM 23.0 °F - 17.1 °F 78% 30.20 in 10.0 mi Calm Calm - N/A   Overcast
3:52 AM 23.0 °F - 18.0 °F 81% 30.17 in 10.0 mi Calm Calm - N/A   Overcast
4:52 AM 24.1 °F - 18.0 °F 77% 30.14 in 10.0 mi Calm Calm - N/A   Overcast
5:52 AM 24.1 °F - 18.0 °F 77% 30.13 in 10.0 mi Calm Calm - N/A   Overcast
6:52 AM 24.1 °F 19.7 °F 17.1 °F 75% 30.12 in 10.0 mi NNW 3.5 mph - N/A   Overcast
7:52 AM 24.1 °F 19.7 °F 18.0 °F 77% 30.12 in 2.0 mi NNW 3.5 mph - 0.00 in Snow Light Snow
7:55 AM 24.8 °F 19.1 °F 17.6 °F 74% 30.06 in 1.2 mi North 4.6 mph - 0.00 in Snow Light Snow
8:04 AM 24.8 °F 20.5 °F 19.4 °F 80% 30.06 in 0.8 mi NNW 3.5 mph - 0.00 in Snow Light Snow
8:35 AM 24.8 °F 20.5 °F 19.4 °F 80% 30.07 in 0.5 mi NNW 3.5 mph - 0.02 in Fog , Snow Snow
8:52 AM 24.1 °F - 19.9 °F 84% 30.12 in 0.5 mi Calm Calm - 0.03 in Fog , Snow Snow
9:52 AM 24.1 °F - 21.0 °F 88% 30.08 in 0.5 mi Calm Calm - 0.04 in Fog , Snow Snow
10:07 AM 24.8 °F - 21.2 °F 86% 30.01 in 0.8 mi Calm Calm - 0.01 in Snow Light Snow
10:14 AM 24.8 °F - 21.2 °F 86% 30.00 in 0.5 mi Calm Calm - 0.01 in Fog , Snow Snow
10:24 AM 24.8 °F 17.9 °F 21.2 °F 86% 30.00 in 0.8 mi NNW 5.8 mph - 0.01 in Snow Light Snow
10:52 AM 25.0 °F 19.3 °F 21.9 °F 88% 30.04 in 0.8 mi NNW 4.6 mph - 0.03 in Snow Light Snow
11:52 AM 26.1 °F - 21.9 °F 84% 29.99 in 1.0 mi Calm Calm - 0.03 in Snow Light Snow
12:04 PM 26.6 °F 22.6 °F 21.2 °F 80% 29.93 in 1.5 mi NNW 3.5 mph - 0.00 in Snow Light Snow
12:23 PM 26.6 °F - 21.2 °F 80% 29.90 in 1.2 mi Calm Calm - 0.01 in Snow Light Snow
12:40 PM 26.6 °F - 23.0 °F 86% 29.88 in 1.2 mi Calm Calm - 0.02 in Snow Light Snow
12:52 PM 27.0 °F - 23.0 °F 85% 29.93 in 1.0 mi Calm Calm - 0.02 in Snow Light Snow
1:22 PM 26.6 °F - 23.0 °F 86% 29.86 in 0.8 mi Calm Calm - 0.01 in Snow Light Snow
1:52 PM 27.0 °F - 24.1 °F 89% 29.89 in 0.8 mi Calm Calm - 0.03 in Snow Light Snow
2:52 PM 27.0 °F - 24.1 °F 89% 29.87 in 1.0 mi Calm Calm - 0.03 in Snow Light Snow
3:16 PM 26.6 °F - 24.8 °F 93% 29.81 in 0.8 mi Calm Calm - 0.00 in Snow Light Snow
3:52 PM 27.0 °F - 24.1 °F 89% 29.86 in 1.0 mi Calm Calm - 0.02 in Snow Light Snow
4:06 PM 26.6 °F - 24.8 °F 93% 29.79 in 0.8 mi Calm Calm - 0.01 in Snow Light Snow
4:18 PM 26.6 °F - 24.8 °F 93% 29.79 in 1.2 mi Calm Calm - 0.01 in Snow Light Snow
4:52 PM 27.0 °F - 24.1 °F 89% 29.84 in 1.8 mi Calm Calm - 0.02 in Snow Light Snow
5:06 PM 26.6 °F 22.6 °F 24.8 °F 93% 29.78 in 2.0 mi North 3.5 mph - 0.00 in Snow Light Snow
5:52 PM 27.0 °F - 24.1 °F 89% 29.81 in 9.0 mi Calm Calm - 0.00 in   Overcast
6:52 PM 27.0 °F - 24.1 °F 89% 29.81 in 10.0 mi Calm Calm - N/A   Overcast
7:52 PM 27.0 °F - 24.1 °F 89% 29.79 in 8.0 mi Calm Calm - N/A   Overcast
8:52 PM 26.1 °F - 24.1 °F 92% 29.79 in 10.0 mi Calm Calm - N/A   Overcast
9:52 PM 27.0 °F - 24.1 °F 89% 29.78 in 10.0 mi Calm Calm - N/A   Overcast
10:52 PM 27.0 °F - 23.0 °F 85% 29.76 in 9.0 mi Calm Calm - N/A   Overcast
11:52 PM 24.1 °F - 21.9 °F 91% 29.76 in 8.0 mi Calm Calm - N/A   Overcast